Hourly Data Report for October 07, 2016

All times are specified in Local Standard Time (LST). Add 1 hour to adjust for Daylight Saving Time where and when it is observed.

TORONTO INTL A
ONTARIO

43°40'36.000" N
79°37'50.000" W
173.40 m
6158731
71624
YYZ

Download Data

Hourly Data (October 2016)
Hourly Data Report for October 7, 2016
Temp Definition
°C
Dew Point Temp Definition
°C
Rel Hum Definition
%
Wind Dir Definition
10's deg

Wind Spd Definition
km/h
Visibility Definition
km
Stn Press Definition
kPa
Hmdx Definition


Wind Chill Definition


Weather Definition


TIME
00:00 Legend Double Dagger 16.3 13.8 85 5 4 24.1 100.21     LegendNANA
01:00 Legend Double Dagger 16.2 14.1 87 6 5 24.1 100.16     Clear
02:00 Legend Double Dagger 15.8 14.2 90 36 3 24.1 100.14     LegendNANA
03:00 Legend Double Dagger 13.8 12.7 93 36 3 24.1 100.16     LegendNANA
04:00 Legend Double Dagger 14.5 13.4 93 36 7 24.1 100.17     Clear
05:00 Legend Double Dagger 14.2 13.4 95 3 4 24.1 100.15     LegendNANA
06:00 Legend Double Dagger 14.4 13.5 94 3 7 16.1 100.10     LegendNANA
07:00 Legend Double Dagger 13.2 12.3 94 31 4 9.7 100.13     Fog
08:00 Legend Double Dagger 17.4 16.3 93 18 5 12.9 100.12     LegendNANA
09:00 Legend Double Dagger 19.2 14.9 76 16 10 24.1 100.10     LegendNANA
10:00 Legend Double Dagger 19.9 14.4 70 20 5 24.1 100.05     Mainly Clear
11:00 Legend Double Dagger 20.3 14.3 68 14 18 24.1 99.96     LegendNANA
12:00 Legend Double Dagger 20.6 13.7 64 16 17 24.1 99.92     LegendNANA
13:00 Legend Double Dagger 21.1 14.4 65 15 19 24.1 99.83 25   Mainly Clear
14:00 Legend Double Dagger 21.8 14.1 61 15 17 24.1 99.78 25   LegendNANA
15:00 Legend Double Dagger 21.3 14.3 64 15 22 24.1 99.69 25   LegendNANA
16:00 Legend Double Dagger 20.4 15.3 72 15 15 24.1 99.68 25   Clear
17:00 Legend Double Dagger 19.8 14.7 72 12 15 24.1 99.67     LegendNANA
18:00 Legend Double Dagger 19.2 14.5 74 16 8 24.1 99.67     LegendNANA
19:00 Legend Double Dagger 19.8 13.6 67 18 5 24.1 99.65     Clear
20:00 Legend Double Dagger 19.3 12.9 66 15 7 24.1 99.60     LegendNANA
21:00 Legend Double Dagger 18.6 13.1 70 15 6 24.1 99.55     LegendNANA
22:00 Legend Double Dagger 17.6 15.3 86 15 9 24.1 99.55     Clear
23:00 Legend Double Dagger 17.4 14.0 80 36 3 24.1 99.49     LegendNANA

Notes on Data Quality.

Legend

  • E = Estimated
  • M = Missing
  • NA = Not Available
  • ‡ = Partner data that is not subject to review by the National Climate Archives
Date modified: